Guest (not logged in) | Log in

Project information

Duration: 2018-12-20 00:00 onwards
Historical data from: 1995-01-01
Position: 0° 0' 0.00" N
0° 0' 0.00" E
0 m A.S.L
Contact: Carsten Weber Kock
Description: Zephir 317 måler vind i Roskilde

Measurements

NameHeight [m]DurationLatest (2019-02-22 23:50)
Dir_100m 0.00 2018-12-20 14:20 onwards 161.75 Deg
Dir_10m 0.00 2018-12-20 14:20 onwards 160.95 Deg
Dir_125m 0.00 2018-12-20 14:20 onwards 162.75 Deg
Dir_150m 0.00 2018-12-20 14:20 onwards 163.15 Deg
Dir_200m 0.00 2018-12-20 14:20 onwards 163.83 Deg
Dir_20m 0.00 2018-12-20 14:20 onwards 158.44 Deg
Dir_30m 0.00 2018-12-20 14:20 onwards 160.93 Deg
Dir_38m 0.00 2018-12-20 14:20 onwards 160.08 Deg
Dir_50m 0.00 2018-12-20 14:20 onwards 161.15 Deg
Dir_60m 0.00 2018-12-20 14:20 onwards 160.49 Deg
Dir_800m 0.00 2018-12-20 14:20 onwards -
Dir_80m 0.00 2018-12-20 14:20 onwards 160.95 Deg
Humidity 0.00 2018-12-20 14:20 onwards 42.50 %
MetDir 0.00 2018-12-20 14:20 onwards 148.06 Deg
Metwsp 0.00 2018-12-20 14:20 onwards 4.21 m/s
Pressure 0.00 2018-12-20 14:20 onwards 1036.00 mbar
Temp 0.00 2018-12-20 14:20 onwards -1.10 DegC
TI_100m 0.00 2018-12-20 14:20 onwards 0.06 -
TI_10m 0.00 2018-12-20 14:20 onwards 0.17 -
TI_125m 0.00 2018-12-20 14:20 onwards 0.05 -
TI_150m 0.00 2018-12-20 14:20 onwards 0.03 -
TI_200m 0.00 2018-12-20 14:20 onwards 0.02 -
TI_20m 0.00 2018-12-20 14:20 onwards 0.13 -
TI_30m 0.00 2018-12-20 14:20 onwards 0.11 -
TI_38m 0.00 2018-12-20 14:20 onwards 0.12 -
TI_50m 0.00 2018-12-20 14:20 onwards 0.13 -
TI_60m 0.00 2018-12-20 14:20 onwards 0.12 -
TI_800m 0.00 2018-12-20 14:20 onwards -
TI_80m 0.00 2018-12-20 14:20 onwards 0.08 -
Vert_100m 0.00 2018-12-20 14:20 onwards -
Vert_10m 0.00 2018-12-20 14:20 onwards -
Vert_125m 0.00 2018-12-20 14:20 onwards -
Vert_150m 0.00 2018-12-20 14:20 onwards -
Vert_200m 0.00 2018-12-20 14:20 onwards -
Vert_20m 0.00 2018-12-20 14:20 onwards -
Vert_30m 0.00 2018-12-20 14:20 onwards -
Vert_38m 0.00 2018-12-20 14:20 onwards -
Vert_50m 0.00 2018-12-20 14:20 onwards -
Vert_60m 0.00 2018-12-20 14:20 onwards -
Vert_800m 0.00 2018-12-20 14:20 onwards -
Vert_80m 0.00 2018-12-20 14:20 onwards -
Wsp_100m 0.00 2018-12-20 14:20 onwards 9.41 m/s
Wsp_10m 0.00 2018-12-20 14:20 onwards 5.45 m/s
Wsp_125m 0.00 2018-12-20 14:20 onwards 10.02 m/s
Wsp_150m 0.00 2018-12-20 14:20 onwards 10.42 m/s
Wsp_200m 0.00 2018-12-20 14:20 onwards 10.71 m/s
Wsp_20m 0.00 2018-12-20 14:20 onwards 6.06 m/s
Wsp_30m 0.00 2018-12-20 14:20 onwards 6.36 m/s
Wsp_38m 0.00 2018-12-20 14:20 onwards 6.68 m/s
Wsp_50m 0.00 2018-12-20 14:20 onwards 7.26 m/s
Wsp_60m 0.00 2018-12-20 14:20 onwards 7.73 m/s
Wsp_800m 0.00 2018-12-20 14:20 onwards -
Wsp_80m 0.00 2018-12-20 14:20 onwards 8.73 m/s
Comments and help requests to webmaster
© 2019